Regional Weather Roundup
Issued by NWS Charleston, SC

Current Version | Previous Version | Graphics & Text | Print | Product List | Glossary On
Versions: 1 2 3 4 5 6 7 8 9 10 11 12 13 14 15 16 17 18 19 20 21 22 23 24 25 26 27 28 29 30 31 32 33 34 35 36 37 38 39 40 41 42 43 44 45 46 47 48 49 50
000 ASUS42 KCHS 251728 RWRCHS REGIONAL WEATHER ROUNDUP NATIONAL WEATHER SERVICE CHARLESTON SC 100 PM EDT MON JUL 25 2016 NOTE: "FAIR" INDICATES FEW OR NO CLOUDS BELOW 12,000 FEET WITH NO SIGNIFICANT WEATHER AND/OR OBSTRUCTIONS TO VISIBILITY. NOT ALL STATIONS ARE QUALITY CONTROLLED. USE DATA WITH CAUTION... ESPECIALLY DEWPOINT OBSERVATIONS. SCZ027-030-031-034>040-042>050-251800- ...SOUTHEAST SOUTH CAROLINA... CITY SKY/WX TMP DP RH WIND PRES REMARKS N CHARLESTON MOSUNNY 92 74 55 S9 30.07F HX 101 WATERFRONT PRK N/A 87 76 69 S8 30.06F HX 97 MOUNT PLEASANT FAIR 90 73 58 S8 30.07F HX 98 JOHNS ISLAND FAIR 90 77 66 S12 30.08F HX 102 PINOPOLIS N/A 88 73 62 SW5 30.00F HX 96 MONCKS CORNER PTSUNNY 88 68 51 SW6 30.06F HX 91 SUMMERVILLE FAIR 91 73 55 CALM 30.07F HX 100 BEAUFORT MCAS MOSUNNY 94 72 48 SW5 30.07F HX 102 BEAUFORT ARPT FAIR 90 72 55 SW9 30.06F HX 96 HILTON HEAD IS MOSUNNY 95 73 49 SE10 30.09F HX 105 WALTERBORO MOSUNNY 91 70 49 S6 30.08S HX 97 ALLENDALE FAIR 93 70 46 VRB7G14 30.05F HX 99 ...SOUTHERN MIDLANDS AND PEE DEE... CITY SKY/WX TMP DP RH WIND PRES REMARKS GEORGETOWN FAIR 88 73 62 S9 30.08F HX 96 KINGSTREE FAIR 91 68 46 SW6 30.06F HX 95 ORANGEBURG SUNNY 92 74 55 S7 30.06F HX 101 BARNWELL NOT AVBL AIKEN FAIR 90 70 51 S8 30.09F HX 95 MANNING FAIR 90 66 45 S6 30.06F HX 92 COLUMBIA MOSUNNY 95 72 47 S8 30.03F HX 103 SUMTER MOSUNNY 92 73 53 VRB6 30.03F HX 100 FLORENCE SUNNY 92 70 48 VRB7 30.06F HX 97 MYRTLE BEACH MOSUNNY 90 70 51 S17 30.09F HX 95 N MYRTLE BEACH SUNNY 88 77 69 S13 30.07F HX 100 $$ GAZ063-065-086>088-099>101-113>116-118-119-134>141-150-251800- ...SOUTHEAST GEORGIA... CITY SKY/WX TMP DP RH WIND PRES REMARKS SAVANNAH ARPT MOSUNNY 92 69 47 S8 30.07F HX 97 HUNTER AAF SUNNY 91 75 60 SE6 30.05F HX 102 FORT STEWART SUNNY 90 72 55 E5 30.05F HX 97 STATESBORO SUNNY 93 71 48 S8 30.06F HX 99 SYLVANIA NOT AVBL CLAXTON FAIR 92 72 51 S5 30.05F HX 100 ...CSRA...CENTRAL AND FAR SOUTHEAST GEORGIA... CITY SKY/WX TMP DP RH WIND PRES REMARKS THOMSON NOT AVBL AUGUSTA-BUSH MOSUNNY 94 71 47 VRB7 30.03F HX 101 AUGUSTA-DANIEL MOSUNNY 94 70 45 S9 30.06F HX 100 SWAINSBORO FAIR 91 72 52 W6 30.06F HX 98 VIDALIA MOSUNNY 95 66 38 S7 30.05F HX 98 EASTMAN PTSUNNY 92 59 32 CALM 30.07F HX 91 HAZLEHURST FAIR 94 71 47 CALM 30.05F HX 100 ALMA MOSUNNY 90 72 55 SE5 30.07F HX 97 WAYCROSS PTSUNNY 93 73 52 SE10 30.06F HX 102 JESUP FAIR 95 75 52 SE5 30.06F HX 107 BAXLEY FAIR 91 73 55 SE7 30.05F HX 100 BRUNSWICK MOSUNNY 90 75 62 SE12 30.08F HX 100 SAINT SIMONS SUNNY 88 72 58 SE12 30.09F HX 94 $$ SCZ027-028-034-036>038-045-046-048>050-GAZ119-141-251800- ...LAKE AND SUPPLEMENTAL COASTAL OBSERVATIONS... STATION/POSITION TIME TEMP WIND PRES WAVE SWELL AIR SEA DIR/SP/G HT/PER HT/PER/DIR (UTC) (F) (DEG/KT/KT) (MB) (FT/S) (FT/S/D) WINYAH BAY 1600 89 200/ 3 1018.0S LAKE MURRAY 1600 86 200/ 5/ 6 1017.3F ACE BASIN NERRS 1600 89 160/ 2 1019.0S FORT PULASKI 1700 87 87 150/ 8/ 10 1019.1F SAPELO ISLAND 1700 92 160/ 8 1019.0S $$ ANZ835-935-AMZ111-154-330-350-352-354-370-450-454-472-251800- ...C-MAN AND BUOY OBSERVATIONS... STATION/POSITION TIME TEMP WIND PRES WAVE SWELL AIR SEA DIR/SP/G HT/PER HT/PER/DIR (UTC) (F) (DEG/KT/KT) (MB) (FT/S) (FT/S/D) BUOY 41004 1650 85 86 210/ 6/ 8 1018.7F 2/ 8 2/120/ 8 BUOY 41008 1650 84 87 200/ 4/ 6 1019.0F 2/ 8 2/110/ 8 FOLLY BEACH CMAN 1700 86 190/ 10/ 11 1018.9F CAPERS NEARSHORE 1708 84 84 210/ 10/ 12 1018.6F FRIPP NEARSHORE 1708 85 86 210/ 8/ 10 1017.9F STATION/POSITION TIME TEMP WIND PRES WAVE SWELL AIR SEA DIR/SP/G HT/PER HT/PER/DIR (UTC) (F) (DEG/KT/KT) (MB) (FT/S) (FT/S/D) 5E ST. MARYS GA 1701 86 N/A 2/ 8 FRYING PAN BUOY 1700 84 86 220/ 8/ 12 1018.6F BUOY 41025 1650 84 86 220/ 8/ 12 1018.4F 2/ 5 2/210/ 5 CAPE LOOKOUT NC 1700 87 230/ 10/ 13 1018.2F BUOY 41002 1650 82 85 180/ 12/ 16 1020.3R 2/ 8 2/100/ 8 BUOY 41010 1620 84 87 CALM / 2 1019.7S ST AUGUSTINE FL 1700 83 86 120/ 10/ 11 1019.8F $$

USA.gov is the U.S. government's official web portal to all federal, state and local government web resources and services.